STARLINK-3752, 52312

Orbit data source: Space-Track

STARLINK-3752, 52312 is a payload satellite owned by SpaceX/Seattle (US) in LEO that was launched on Thu, 21 Apr 2022 UTC via an FALCON 9 launch vehicle from the Air Force Eastern Test Range (AFETR). Payload-class satellites include a variety of spacecraft equipped with specific instruments for various scientific and technological missions. These include communications satellites like Starlink; space stations such as the ISS; scientific satellites like the Hubble; Earth observation satellites from companies like Planet Labs, Umbra, and HawkEye 360; GPS; miniature CubeSats for education and research; and military/defense satellites.

Loading next visibility...
Identifier
52312, 2022-041BD
Orbit
LEO
Country
Flag of USUS
Related business
Manufacturer
SpaceX/Seattle
Mission
Operational Commercial Communications
Bus & Motor
STARLINK, Unknown motor
Mass
297 kg wet, ~275 kg dry
Launch date (UTC)
2022-04-21 (4 years ago)
Launch vehicle
FALCON 9
Launch site
Air Force Eastern Test Range (AFETR)
Object type
Payload
Rocket body
Debris
Shape & HBR
Box + 1 Pan, 10.1 m
Radar Cross Section
11.087 m², Large (>1 m²)

Expand to show TLE details & history
Last TLE update: 9 hours ago

TLE from 9 hours ago
0 STARLINK-3752
1 52312U 22041BD  26130.12566593 -.00000154  00000-0  83877-5 0  9990
2 52312  53.2157 173.2751 0001178  81.4505 278.6621 15.08837570225144
Epoch: 2026-05-10T03:00Z
TLE epoch observation values (Epoch: 2026-05-10T03:00:57.536Z)
Latitude
0.00002°
Longitude
-99.89785°
Altitude
540.525 km
Speed
7.593 km/s
True Right ascension
11h 33m 06s
True Declination
0° 00' 00"
Sunlit
Object was in full shadow at epoch
Visualization orbit readout
Latitude
Unknown
Longitude
Unknown
Altitude
Unknown
Speed
Unknown
Apparent Right ascension
Unknown
Apparent Declination
Unknown
Sunlit
N/A
Visualization observer readout
Local Sidereal Time
20:36:21
Azimuth
Unknown
Elevation
Unknown
Doppler factor
Unknown
Orbital elements
Apogee altitude
540.811 km
Perigee altitude
539.181 km
Semi-major axis
6,918.133 km
Eccentricity
0.00012
Inclination
53.2157°
RAAN
173.2751°
Arg. of periapsis
81.4505°
True anomaly
278.64875°
Mean anomaly
278.6621°
Eccentric anomaly
278.65543°
Mean motion
3.7719 °/min
Orbital period
95.44 mins
BSTAR
0.0000083877
Loading maneuver chart data...
Computing Atmospheric mass density...
Loading historical data...
Loading historical data...
Loading historical data...
Loading historical data...
Loading historical data...
Loading historical data...
Loading historical data...

Documentation

Showing up to 5 results
|